DW6455 Orivesi FI current weather conditions

sailwx.info

Wind from 269 at 6 knots gusting 16

Air temperature 10.6° C
Dewpoint 8.8° C

Last reported at 2015-May-23 07:47 UTC.
Time now 2015-May-23 08:48 UTC

Location: N 61°39' E 024°21'.
View on Google Maps.

See reports from other nearby stations

  
Tides and Currents Weather Stations Pressure Air Temp Water Temp Dewpoint Dewpoint Depression Visibility Wind Speed Wind Dir Waves Ship Positions
date/time (UTC)wind fromknots sea level pressurealtimeterstation pressurevisibilityair tempwater tempwave heightnotes
2015-May-23 07:47 269 6 gusting 16 10.6
2015-May-23 07:42 225 6 gusting 19 10.6
2015-May-23 07:37 232 6 gusting 19 10.0
2015-May-23 07:32 238 7 gusting 19 10.0
2015-May-23 07:27 260 7 gusting 19 10.0
2015-May-23 07:22 280 6 gusting 17 10.0
2015-May-23 07:17 236 6 gusting 17 10.0
2015-May-23 07:12 268 6 gusting 15 10.0
2015-May-23 07:07 214 6 gusting 15 9.4
2015-May-23 07:02 235 6 gusting 16 9.4
2015-May-23 06:52 236 6 gusting 21 8.9
2015-May-23 06:47 229 6 gusting 21 8.9
2015-May-23 06:42 205 7 gusting 19 8.9
2015-May-23 06:37 259 7 gusting 19 8.9
2015-May-23 06:32 294 6 gusting 23 8.9
2015-May-23 06:27 260 8 gusting 23 8.9
2015-May-23 06:22 249 8 gusting 18 8.9
2015-May-23 06:17 246 8 gusting 18 8.9
2015-May-23 06:12 205 9 gusting 21 8.9
2015-May-23 06:07 221 8 gusting 21 8.9
2015-May-23 06:02 195 7 gusting 21 8.9
2015-May-23 05:57 197 6 gusting 21 8.9
2015-May-23 05:52 246 6 gusting 16 8.9
2015-May-23 05:47 213 7 gusting 16 8.9
2015-May-23 05:37 212 7 gusting 18 8.9
2015-May-23 05:32 166 6 gusting 19 8.9
2015-May-23 05:22 232 8 gusting 19 9.4
2015-May-23 05:17 194 8 gusting 19 9.4
2015-May-23 05:12 171 7 gusting 17 9.4
2015-May-23 05:07 225 6 gusting 17 9.4
2015-May-23 05:02 223 6 gusting 17 9.4
2015-May-23 04:57 217 7 gusting 17 9.4
2015-May-23 04:52 169 7 gusting 21 9.4
2015-May-23 04:47 234 7 gusting 21 9.4
2015-May-23 04:42 205 6 gusting 21 9.4
2015-May-23 04:37 211 7 gusting 21 9.4
2015-May-23 04:32 183 6 gusting 19 9.4
2015-May-23 04:27 161 6 gusting 19 9.4
2015-May-23 04:22 160 7 gusting 19 9.4
2015-May-23 04:17 194 8 gusting 19 8.9
2015-May-23 04:12 229 8 gusting 19 8.9
2015-May-23 04:07 182 7 gusting 17 8.9
2015-May-23 04:02 211 6 gusting 17 8.9
2015-May-23 03:57 215 6 gusting 17 8.9
2015-May-23 03:52 119 6 gusting 20 8.9
2015-May-23 03:47 206 6 gusting 20 8.9
2015-May-23 03:42 218 6 gusting 20 8.9
2015-May-23 03:37 206 6 gusting 13 8.9
2015-May-23 03:32 215 5 gusting 13 8.9
2015-May-23 03:27 341 5 gusting 13 8.9
2015-May-23 03:22 215 6 gusting 13 8.9
2015-May-23 03:17 194 5 gusting 13 8.9
2015-May-23 03:12 210 4 gusting 14 8.9
2015-May-23 03:07 144 5 gusting 14 8.9
2015-May-23 03:02 141 6 gusting 15 8.9
2015-May-23 02:57 133 6 gusting 15 8.9
2015-May-23 02:52 220 5 gusting 16 8.9
2015-May-23 02:47 222 5 gusting 16 8.9
2015-May-23 02:42 207 5 gusting 13 8.9
2015-May-23 02:37 200 5 gusting 13 8.9
2015-May-23 02:27 211 4 gusting 15 8.9
2015-May-23 02:22 182 4 gusting 13 8.9
2015-May-23 02:17 149 5 gusting 13 8.9
2015-May-23 02:12 198 6 gusting 13 8.9
2015-May-23 02:07 198 6 gusting 13 8.9
2015-May-23 02:02 218 6 gusting 14 8.9
2015-May-23 01:57 192 5 gusting 14 8.9
2015-May-23 01:52 223 5 gusting 14 8.9
2015-May-23 01:47 170 6 gusting 13 8.9
2015-May-23 01:42 194 5 gusting 13 8.9
2015-May-23 01:37 159 5 gusting 13 8.9
2015-May-23 01:32 217 5 gusting 13 8.9
2015-May-23 01:22 240 6 gusting 14 8.9
2015-May-23 01:17 214 6 gusting 14 8.9
2015-May-23 01:12 209 6 gusting 14 8.9
2015-May-23 01:07 242 5 gusting 14 8.9
2015-May-23 01:02 221 6 gusting 14 8.9
2015-May-23 00:57 190 6 gusting 13 8.9
2015-May-23 00:52 244 4 gusting 15 8.9
2015-May-23 00:47 190 5 gusting 15 8.9
2015-May-23 00:42 231 6 gusting 13 8.9
2015-May-23 00:37 268 6 gusting 13 8.9
2015-May-23 00:32 132 6 gusting 12 8.9
2015-May-23 00:27 194 6 gusting 12 8.9
2015-May-23 00:22 199 6 gusting 15 8.9
2015-May-23 00:17 225 4 gusting 15 8.9
2015-May-23 00:12 221 4 gusting 13 9.4
2015-May-23 00:07 159 4 gusting 13 9.4
2015-May-23 00:02 194 4 gusting 16 9.4
2015-May-22 23:57 194 5 gusting 16 9.4
2015-May-22 23:52 244 5 gusting 16 9.4
2015-May-22 23:47 148 4 gusting 13 9.4
2015-May-22 23:42 220 5 gusting 13 9.4
2015-May-22 23:37 207 4 gusting 13 9.4
2015-May-22 23:32 259 4 gusting 15 9.4
2015-May-22 23:27 213 4 gusting 15 10.0
2015-May-22 23:22 198 5 gusting 15 10.0
2015-May-22 23:17 227 6 gusting 14 10.0
2015-May-22 23:12 174 5 gusting 13 10.0
2015-May-22 23:07 231 4 gusting 13 10.0
2015-May-22 23:02 217 5 gusting 12 10.0
2015-May-22 22:57 250 5 gusting 12 10.0
2015-May-22 22:52 216 3 gusting 11 10.0
2015-May-22 22:47 227 3 gusting 11 10.0
2015-May-22 22:42 197 4 gusting 10 10.0
2015-May-22 22:37 203 5 gusting 10 10.0
2015-May-22 22:32 270 4 gusting 12 10.0
2015-May-22 22:27 169 4 gusting 12 10.0
2015-May-22 22:22 168 5 gusting 12 10.0
2015-May-22 22:17 155 6 gusting 12 10.0
2015-May-22 22:12 238 6 gusting 13 10.0
2015-May-22 22:07 261 6 gusting 13 10.6
2015-May-22 22:02 184 5 gusting 13 10.6
2015-May-22 21:57 173 5 gusting 13 10.6
2015-May-22 21:52 212 6 gusting 14 10.6
2015-May-22 21:47 227 6 gusting 14 10.6
2015-May-22 21:42 228 6 gusting 14 10.6
2015-May-22 21:37 218 6 gusting 14 10.6
2015-May-22 21:32 208 5 gusting 16 10.6
2015-May-22 21:27 254 6 gusting 16 10.6
2015-May-22 21:22 216 6 gusting 15 10.6
2015-May-22 21:17 229 6 gusting 15 10.6
2015-May-22 21:12 217 6 gusting 15 10.6
2015-May-22 21:07 213 6 gusting 15 10.6
2015-May-22 21:02 205 6 gusting 13 10.6
2015-May-22 20:57 265 6 gusting 13 10.6
2015-May-22 20:52 245 5 gusting 15 10.6
2015-May-22 20:47 244 5 gusting 15 10.6
2015-May-22 20:42 248 6 gusting 15 10.6
2015-May-22 20:37 200 5 gusting 15 10.6
2015-May-22 20:32 219 5 gusting 15 10.6
2015-May-22 20:27 231 6 gusting 15 10.6
2015-May-22 20:22 223 6 gusting 16 10.6
2015-May-22 20:17 289 7 gusting 16 10.6
2015-May-22 20:12 224 8 gusting 11 10.6
2015-May-22 20:07 251 6 gusting 11 10.6
2015-May-22 20:02 214 5 gusting 10 10.6
2015-May-22 19:57 227 5 gusting 16 10.6
2015-May-22 19:52 274 5 gusting 16 10.6
2015-May-22 19:47 213 5 gusting 16 10.6
2015-May-22 19:42 209 6 gusting 15 11.1
2015-May-22 19:37 202 6 gusting 15 11.1
2015-May-22 19:32 219 6 gusting 15 11.1
2015-May-22 19:27 219 6 gusting 15 11.1
2015-May-22 19:22 238 6 gusting 15 11.7
2015-May-22 19:17 215 6 gusting 19 11.7
2015-May-22 19:12 235 6 gusting 19 11.7
2015-May-22 19:07 228 7 gusting 19 11.7
2015-May-22 19:02 188 7 gusting 14 11.7
2015-May-22 18:57 239 6 gusting 19 11.7
2015-May-22 18:52 252 5 gusting 19 11.7
2015-May-22 18:47 263 6 gusting 19 11.7
2015-May-22 18:42 255 8 gusting 18 11.7
2015-May-22 18:37 194 7 gusting 18 12.2
2015-May-22 18:32 250 7 gusting 20 12.2
2015-May-22 18:27 225 7 gusting 20 12.2
2015-May-22 18:22 192 9 gusting 20 12.2
2015-May-22 18:17 186 9 gusting 18 12.2
2015-May-22 18:12 253 7 gusting 18 12.2
2015-May-22 18:07 217 6 gusting 18 12.8
2015-May-22 18:02 228 7 gusting 18 12.8
2015-May-22 17:57 212 8 gusting 18 12.8
2015-May-22 17:52 233 8 gusting 18 12.8
2015-May-22 17:47 228 6 gusting 16 12.8
2015-May-22 17:42 207 5 gusting 17 13.3
2015-May-22 17:37 259 6 gusting 17 13.3
2015-May-22 17:32 222 8 gusting 17 13.3
2015-May-22 17:27 246 7 gusting 19 13.3
2015-May-22 17:22 259 7 gusting 19 13.3
2015-May-22 17:17 284 9 gusting 19 13.9
2015-May-22 17:12 264 7 gusting 19 13.9
2015-May-22 17:07 259 6 gusting 19 13.9
2015-May-22 17:02 194 6 gusting 22 13.9
2015-May-22 16:57 245 7 gusting 22 13.9
2015-May-22 16:52 253 9 gusting 22 14.4
2015-May-22 16:47 165 10 gusting 22 14.4
2015-May-22 16:42 221 9 gusting 19 14.4
2015-May-22 16:37 272 8 gusting 19 14.4
2015-May-22 16:32 167 7 gusting 14 14.4
2015-May-22 16:27 202 5 gusting 14 15.0
2015-May-22 16:22 216 6 gusting 16 15.0
2015-May-22 16:17 240 6 gusting 16 15.0
2015-May-22 16:12 229 6 gusting 19 15.0
2015-May-22 16:07 215 6 gusting 19 15.0
2015-May-22 16:02 241 6 gusting 19 15.0
2015-May-22 15:57 190 6 gusting 19 15.0
2015-May-22 15:52 293 6 gusting 19 15.6
2015-May-22 15:47 255 6 gusting 19 15.6
2015-May-22 15:42 213 8 gusting 19 15.6
2015-May-22 15:37 250 8 gusting 19 15.6
2015-May-22 15:32 239 7 gusting 19 15.6
2015-May-22 15:27 234 7 gusting 19 16.1
2015-May-22 15:22 213 7 gusting 18 16.1
2015-May-22 15:17 220 7 gusting 18 16.1
2015-May-22 15:12 203 6 gusting 19 16.1
2015-May-22 15:07 193 6 gusting 19 16.7
2015-May-22 15:02 262 8 gusting 18 16.1
2015-May-22 14:57 256 7 gusting 18 16.7
2015-May-22 14:52 232 7 gusting 19 16.7
2015-May-22 14:47 250 7 gusting 19 16.7
2015-May-22 14:42 223 7 gusting 20 16.7
2015-May-22 14:37 225 6 gusting 20 16.7
2015-May-22 14:32 249 6 gusting 20 16.7
2015-May-22 14:27 253 6 gusting 20 16.7
2015-May-22 14:22 196 8 gusting 22 16.7
2015-May-22 14:17 222 9 gusting 22 16.7
2015-May-22 14:12 242 9 gusting 19 16.7
2015-May-22 14:07 240 8 gusting 19 17.2
2015-May-22 14:02 211 8 gusting 22 17.8
2015-May-22 13:57 274 8 gusting 22 17.8
2015-May-22 13:52 248 8 gusting 20 17.8
2015-May-22 13:47 274 7 gusting 17 17.8
2015-May-22 13:42 219 6 gusting 13 17.8
2015-May-22 13:37 257 6 gusting 13 17.8
2015-May-22 13:32 209 5 gusting 19 17.8
2015-May-22 13:27 244 6 gusting 19 17.2
2015-May-22 13:22 238 6 gusting 16 17.8
2015-May-22 13:17 211 6 gusting 16 17.8
2015-May-22 13:12 224 7 gusting 19 17.8
2015-May-22 13:07 234 6 gusting 19 17.8
2015-May-22 13:02 238 6 gusting 19 17.8
2015-May-22 12:57 216 6 gusting 19 17.8
2015-May-22 12:52 211 7 gusting 19 17.8
2015-May-22 12:47 253 7 gusting 19 18.3
2015-May-22 12:42 246 6 gusting 13 17.8
2015-May-22 12:37 268 6 gusting 13 17.8
2015-May-22 12:32 303 6 gusting 16 18.3
2015-May-22 12:27 178 6 gusting 16 17.8
2015-May-22 12:22 233 6 gusting 20 17.2
2015-May-22 12:17 279 7 gusting 20 17.8
2015-May-22 12:12 259 6 gusting 16 17.8
2015-May-22 12:07 240 6 gusting 16 17.2
2015-May-22 12:02 167 7 gusting 16 16.7
2015-May-22 11:57 213 6 gusting 16 16.7
2015-May-22 11:52 260 6 gusting 17 16.7
2015-May-22 11:47 251 7 gusting 17 16.7
2015-May-22 11:42 219 0 17.2